Flag for Poland Weather past 2 weeks in Kalisz, Poland

Now
87 °F

Passing clouds.


Feels Like: 84 °F
Forecast: 64 / 77 °F
Wind: 3 mph from Southwest

Location: Kalisz

Current Time: Jul 7, 2015 at 6:29:14 PM

Latest Report: Jul 7, 2015 at 5:00 PM


Visibility: 22 mi

Pressure: 29.86 "Hg

Humidity: 29%

Dew point: 51 °F

Location of KaliszLocation

Historic Weather in Kalisz — Graph

°F

Kalisz temperature yesterday

Maximum temperature yesterday: 81 °F (at 12:00 PM)
Minimum temperature yesterday: 68 °F (at 10:00 PM)
Average temperature yesterday: 76 °F

Past Weeks' High & Low Weather Summary

 TemperatureHumidityPressure
High93 °F (Jul 5, 2:00 PM)100% (Jun 28, 6:00 AM)30.39 "Hg (Jun 28, 6:00 AM)
Low47 °F (Jun 24, 5:00 AM)24% (Jul 5, 2:00 PM)29.69 "Hg (Jun 23, 4:00 AM)
Average67 °F65%30.11 "Hg
* Reported Jun 22 5:00 PM — Jul 7 5:00 PM, Kalisz, Weather by CustomWeather, © 2015

Note: Actual official high and low records may vary slightly from our data, if they occured in-between our weather recording intervals... More about our weather records

Advertising

Kalisz weather history for previous 24 hours

 ConditionsComfort  
Time TempWeatherWind HumidityBarometerVisibility
5:00 PM
Tue, Jul 7
87 °FPassing clouds.3 mph29%29.86 "Hg22 mi
4:00 PM86 °FPassing clouds.3 mph29%29.88 "Hg25 mi
3:00 PM85 °FPassing clouds.3 mph28%29.91 "Hg25 mi
2:00 PM84 °FSunny.5 mph30%29.94 "Hg19 mi
1:00 PM82 °FSunny.5 mph32%29.96 "Hg19 mi
12:00 PM80 °FPassing clouds.5 mph34%29.99 "Hg19 mi
11:00 AM78 °FPassing clouds.3 mph40%30.01 "Hg19 mi
10:00 AM77 °FPassing clouds.5 mph42%30.02 "Hg22 mi
9:00 AM74 °FSunny.5 mph49%30.03 "Hg22 mi
8:00 AM70 °FSunny.3 mph57%30.06 "Hg22 mi
7:00 AM63 °FSunny.1 mph73%30.07 "Hg12 mi
6:00 AM59 °FSunny.1 mph81%30.08 "Hg9 mi
4:00 AM58 °FClear.1 mph80%30.08 "Hg12 mi
3:00 AM60 °FClear.2 mph74%30.08 "Hg19 mi
2:00 AM61 °FClear.2 mph70%30.09 "Hg19 mi
1:00 AM62 °FClear.1 mph69%30.09 "Hg19 mi
12:00 AM63 °FClear.1 mph66%30.10 "Hg16 mi
10:00 PM
Mon, Jul 6
68 °FPassing clouds.1 mph56%30.09 "Hg12 mi
9:00 PM70 °FPassing clouds.2 mph52%30.07 "Hg31 mi
8:00 PM74 °FPassing clouds.2 mph45%30.06 "Hg31 mi
7:00 PM77 °FScattered clouds.5 mph42%30.05 "Hg31 mi
6:00 PM78 °FScattered clouds.5 mph45%30.05 "Hg22 mi
Weather by CustomWeather, © 2015

See weather overviewHow to use our weather pages